Regional Weather Roundup
Issued by NWS

Home | Current Version | Previous Version | Graphics & Text | Print | Product List | Glossary On
Versions: 1 2 3 4 5 6 7 8 9 10 11 12 13 14 15 16 17 18 19 20 21 22 23 24 25 26 27 28 29 30 31 32 33 34 35 36 37 38 39 40 41 42 43 44 45 46 47 48 49 50
000
ASUS43 KLMK 242210
RWRKY
KENTUCKY REGIONAL WEATHER ROUNDUP
NATIONAL WEATHER SERVICE LOUISVILLE KY
500 PM EST WED DEC 24 2014

NOTE "FAIR" INDICATES FEW OR NO CLOUDS BELOW 12,000 FEET
WITH NO SIGNIFICANT WEATHER AND/OR OBSTRUCTIONS TO VISIBILITY.

KYZ001>023-026-027-061>063-070>075-242300-
WESTERN AND SOUTH CENTRAL KENTUCKY

CITY           SKY/WX    TMP DP  RH WIND       PRES   REMARKS
PADUCAH        CLOUDY    42  37  82 W9        29.74R
HENDERSON      CLOUDY    41  36  81 W10G16    29.70R
OWENSBORO      CLOUDY    43  39  85 W10       29.70R
HOPKINSVILLE   CLOUDY    45  37  76 W15       29.74R
BOWLING GREEN  MOCLDY    47  39  74 SW7       29.69R
GLASGOW        CLOUDY    44  40  86 W6        29.68R
$$

KYZ024-025-028>034-038-045-046-053-242300-
NORTH CENTRAL KENTUCKY

CITY           SKY/WX    TMP DP  RH WIND       PRES   REMARKS
LOUISVILLE/SDF CLOUDY    44  39  82 W13       29.62R
LOUISVILLE/LOU CLOUDY    44  38  79 W18       29.62R
FORT KNOX      MOCLDY    42  39  86 SW13      29.62R
$$

KYZ035>037-039>044-047>052-055>060-089>105-242300-
NORTHEAST KENTUCKY

CITY           SKY/WX    TMP DP  RH WIND       PRES   REMARKS
LEXINGTON      CLOUDY    43  40  89 W24G32    29.58R
COVINGTON      CLOUDY    42  36  79 W23G31    29.51R
FRANKFORT      CLOUDY    43  39  86 W12G23    29.58R
$$

KYZ054-064>069-076>088-106>120-242300-
SOUTHEAST KENTUCKY

CITY           SKY/WX    TMP DP  RH WIND       PRES   REMARKS
JACKSON        CLOUDY    50  42  74 W13G31    29.55R
LONDON         CLOUDY    46  39  76 W18G30    29.62R
SOMERSET       RAIN      43  39  87 W17       29.65F
MIDDLESBORO    LGT RAIN  50  45  82 W12G25    29.60R
MONTICELLO     CLOUDY    44  42  93 W16G22    29.70R
$$




USA.gov is the U.S. government's official web portal to all federal, state and local government web resources and services.